TimeMDT,TemperatureF,Dew PointF,Humidity,Sea Level PressureIn,VisibilityMPH,Wind Direction,Wind SpeedMPH,Gust SpeedMPH,PrecipitationIn,Events,Conditions,WindDirDegrees,DateUTC
12:55 AM,73.0,63.0,71,29.83,10.0,East,4.6,-,N/A,,Clear,80,2013-08-26 06:55:00
1:55 AM,70.0,64.0,81,29.81,10.0,East,5.8,-,N/A,,Clear,80,2013-08-26 07:55:00
2:55 AM,71.1,64.0,78,29.80,10.0,East,3.5,-,N/A,,Clear,80,2013-08-26 08:55:00
3:55 AM,69.1,64.0,84,29.81,10.0,ENE,3.5,-,N/A,,Clear,70,2013-08-26 09:55:00
4:55 AM,68.0,64.0,87,29.81,10.0,Calm,Calm,-,N/A,,Clear,0,2013-08-26 10:55:00
5:55 AM,68.0,63.0,84,29.81,10.0,WSW,3.5,-,N/A,,Clear,240,2013-08-26 11:55:00
6:55 AM,68.0,64.0,87,29.83,10.0,West,5.8,-,N/A,,Clear,270,2013-08-26 12:55:00
7:55 AM,73.9,64.9,73,29.83,10.0,West,8.1,-,N/A,,Clear,260,2013-08-26 13:55:00
8:55 AM,79.0,66.0,64,29.82,10.0,West,8.1,-,N/A,,Clear,270,2013-08-26 14:55:00
9:55 AM,86.0,66.0,51,29.82,10.0,WSW,8.1,-,N/A,,Clear,240,2013-08-26 15:55:00
10:55 AM,91.9,64.9,41,29.81,10.0,West,10.4,-,N/A,,Clear,270,2013-08-26 16:55:00
11:55 AM,96.1,63.0,33,29.79,10.0,West,11.5,-,N/A,,Clear,280,2013-08-26 17:55:00
12:55 PM,99.0,57.0,25,29.77,10.0,West,8.1,-,N/A,,Clear,270,2013-08-26 18:55:00
1:55 PM,100.9,55.0,22,29.77,10.0,WSW,16.1,27.6,N/A,,Clear,240,2013-08-26 19:55:00
2:55 PM,100.0,54.0,21,29.76,10.0,WSW,15.0,-,N/A,,Clear,240,2013-08-26 20:55:00
3:55 PM,100.9,54.0,21,29.75,10.0,SW,12.7,-,N/A,,Clear,230,2013-08-26 21:55:00
4:55 PM,100.0,53.1,21,29.75,10.0,SW,12.7,18.4,N/A,,Clear,220,2013-08-26 22:55:00
5:55 PM,99.0,51.1,20,29.75,10.0,Calm,Calm,-,N/A,,Clear,0,2013-08-26 23:55:00
6:55 PM,93.0,61.0,34,29.75,10.0,North,9.2,-,N/A,,Clear,360,2013-08-27 00:55:00
7:55 PM,84.9,61.0,44,29.77,10.0,North,9.2,-,N/A,,Clear,350,2013-08-27 01:55:00
8:55 PM,81.0,60.1,49,29.78,10.0,Calm,Calm,-,N/A,,Clear,0,2013-08-27 02:55:00
9:55 PM,75.0,60.1,60,29.79,10.0,WNW,4.6,-,N/A,,Clear,290,2013-08-27 03:55:00
10:55 PM,72.0,57.9,61,29.81,10.0,Calm,Calm,-,N/A,,Clear,0,2013-08-27 04:55:00
11:55 PM,70.0,59.0,68,29.81,10.0,West,4.6,-,N/A,,Clear,280,2013-08-27 05:55:00